Location: ????????
(55.6333°N, 37.7000°E)
Time: 05:45:51
(UTC+00:00)

USA 238 DEB - Pass Details

Date: 06 August 2025
Orbit: 883 x 1328 km, 63.4° (Epoch: 10 January)

Event Time Altitude Azimuth Distance (km) Brightness Sun altitude
Exits shadow 00:49:59 - 265° (W) 3,698 6.1 -6.9°
Rises 00:50:07 0° 266° (W) 3,654 6.0 -6.9°
Reaches altitude 10° 00:52:40 10° 272° (W) 2,761 5.5 -6.6°
Maximum altitude 00:58:59 49° 347° (NNW) 1,359 4.5 -6.0°
Drops below altitude 10° 01:06:02 10° 61° (ENE) 3,077 7.8 -5.2°
Sets 01:09:02 0° 67° (ENE) 4,107 8.6 -4.9°
